Previsão horária em Aliseda

Hoje, 21 Janeiro, Quinta-feira

Tempo Temperatura Precipitação Vento Pressão Humidade
00:00 +10°C° 0.1 mm 4 m/s 721 mmHg 94%
01:00 +8°C° 0.1 mm 4 m/s 721 mmHg 94%
02:00 +8°C° 0.1 mm 4 m/s 721 mmHg 95%
03:00 +8°C° 0.1 mm 4 m/s 721 mmHg 95%
04:00 +8°C° 0.1 mm 4 m/s 722 mmHg 95%
05:00 +8°C° 0.1 mm 4 m/s 722 mmHg 95%
06:00 +8°C° 0.1 mm 4 m/s 722 mmHg 95%
07:00 +8°C° 0 mm 4 m/s 723 mmHg 94%
08:00 +8°C° 0 mm 5 m/s 723 mmHg 93%
09:00 +9°C° 0 mm 5 m/s 723 mmHg 92%
10:00 +9°C° 0.1 mm 5 m/s 723 mmHg 91%
11:00 +9°C° 0.1 mm 6 m/s 723 mmHg 91%
12:00 +10°C° 0.1 mm 6 m/s 723 mmHg 91%
13:00 +10°C° 0.2 mm 6 m/s 722 mmHg 89%
14:00 +11°C° 0.2 mm 7 m/s 722 mmHg 87%
15:00 +11°C° 0.2 mm 7 m/s 721 mmHg 85%
16:00 +11°C° 0.4 mm 7 m/s 721 mmHg 88%
17:00 +11°C° 0.4 mm 6 m/s 721 mmHg 91%
18:00 +10°C° 0.4 mm 6 m/s 721 mmHg 94%
19:00 +10°C° 0.5 mm 6 m/s 721 mmHg 94%
20:00 +10°C° 0.5 mm 5 m/s 721 mmHg 94%
21:00 +11°C° 0.5 mm 4 m/s 721 mmHg 95%
22:00 +10°C° 0.1 mm 5 m/s 721 mmHg 94%
23:00 +10°C° 0.1 mm 5 m/s 720 mmHg 94%

Amanhã, 22 Janeiro, Sexta-feira

Tempo Temperatura Precipitação Vento Pressão Humidade
00:00 +10°C° 0.1 mm 5 m/s 720 mmHg 94%
01:00 +10°C° 0.1 mm 6 m/s 720 mmHg 94%
02:00 +10°C° 0.1 mm 6 m/s 719 mmHg 93%
03:00 +10°C° 0.1 mm 7 m/s 719 mmHg 93%
04:00 +9°C° 0.1 mm 7 m/s 719 mmHg 90%
05:00 +9°C° 0.1 mm 7 m/s 719 mmHg 87%
06:00 +7°C° 0.1 mm 8 m/s 720 mmHg 85%
07:00 +8°C° 0 mm 7 m/s 720 mmHg 85%
08:00 +6°C° 0 mm 7 m/s 720 mmHg 86%
09:00 +7°C° 0 mm 6 m/s 721 mmHg 86%
10:00 +8°C° 0.2 mm 7 m/s 721 mmHg 82%
11:00 +7°C° 0.2 mm 9 m/s 721 mmHg 78%
12:00 +8°C° 0.2 mm 10 m/s 722 mmHg 74%
13:00 +8°C° 0.1 mm 9 m/s 722 mmHg 72%
14:00 +9°C° 0.1 mm 8 m/s 722 mmHg 70%
15:00 +9°C° 0.1 mm 8 m/s 722 mmHg 68%
16:00 +8°C° 0 mm 6 m/s 722 mmHg 73%
17:00 +7°C° 0 mm 5 m/s 723 mmHg 78%
18:00 +5°C° 0 mm 4 m/s 723 mmHg 83%
19:00 +5°C° 0 mm 4 m/s 723 mmHg 85%
20:00 +5°C° 0 mm 4 m/s 724 mmHg 88%
21:00 +4°C° 0 mm 3 m/s 724 mmHg 91%
22:00 +4°C° 0 mm 3 m/s 724 mmHg 92%
23:00 +4°C° 0 mm 3 m/s 725 mmHg 93%

Depois de amanhã, 23 Janeiro, Sábado

Tempo Temperatura Precipitação Vento Pressão Humidade
00:00 +3°C° 0 mm 3 m/s 725 mmHg 95%
01:00 +3°C° 0 mm 3 m/s 725 mmHg 94%
02:00 +4°C° 0 mm 3 m/s 724 mmHg 93%
03:00 +4°C° 0 mm 4 m/s 724 mmHg 92%
04:00 +4°C° 0 mm 4 m/s 724 mmHg 92%
05:00 +4°C° 0 mm 4 m/s 724 mmHg 92%
06:00 +4°C° 0 mm 4 m/s 724 mmHg 92%
07:00 +5°C° 0 mm 4 m/s 724 mmHg 91%
08:00 +5°C° 0 mm 4 m/s 724 mmHg 90%
09:00 +6°C° 0 mm 5 m/s 724 mmHg 89%
10:00 +7°C° 0 mm 5 m/s 723 mmHg 86%
11:00 +8°C° 0 mm 6 m/s 723 mmHg 83%
12:00 +9°C° 0 mm 6 m/s 722 mmHg 80%
13:00 +9°C° 0.1 mm 7 m/s 722 mmHg 82%
14:00 +9°C° 0.1 mm 7 m/s 721 mmHg 85%
15:00 +9°C° 0.1 mm 8 m/s 720 mmHg 88%
16:00 +9°C° 0.6 mm 8 m/s 719 mmHg 89%
17:00 +9°C° 0.6 mm 7 m/s 719 mmHg 91%
18:00 +10°C° 0.6 mm 7 m/s 719 mmHg 93%
19:00 +10°C° 1.2 mm 7 m/s 719 mmHg 93%
20:00 +11°C° 1.2 mm 7 m/s 719 mmHg 94%
21:00 +11°C° 1.2 mm 7 m/s 719 mmHg 94%
22:00 +10°C° 0.5 mm 6 m/s 719 mmHg 93%
23:00 +9°C° 0.5 mm 6 m/s 719 mmHg 92%

24 Janeiro, Domingo

Tempo Temperatura Precipitação Vento Pressão Humidade
00:00 +8°C° 0.5 mm 5 m/s 719 mmHg 91%
01:00 +7°C° 0 mm 4 m/s 719 mmHg 92%
02:00 +7°C° 0 mm 4 m/s 719 mmHg 93%
03:00 +6°C° 0 mm 4 m/s 720 mmHg 94%
04:00 +6°C° 0 mm 4 m/s 720 mmHg 95%
05:00 +6°C° 0 mm 4 m/s 721 mmHg 95%
06:00 +7°C° 0 mm 3 m/s 721 mmHg 96%
07:00 +7°C° 0 mm 3 m/s 721 mmHg 95%
08:00 +7°C° 0 mm 3 m/s 722 mmHg 95%
09:00 +7°C° 0 mm 3 m/s 723 mmHg 94%
10:00 +8°C° 0 mm 3 m/s 723 mmHg 88%
11:00 +9°C° 0 mm 3 m/s 723 mmHg 82%
12:00 +10°C° 0 mm 3 m/s 724 mmHg 76%
13:00 +10°C° 0 mm 4 m/s 723 mmHg 74%
14:00 +10°C° 0 mm 4 m/s 723 mmHg 72%
15:00 +10°C° 0 mm 4 m/s 723 mmHg 69%
16:00 +9°C° 0 mm 3 m/s 723 mmHg 74%
17:00 +8°C° 0 mm 3 m/s 723 mmHg 79%
18:00 +7°C° 0 mm 2 m/s 723 mmHg 84%
19:00 +6°C° 0 mm 2 m/s 723 mmHg 86%
20:00 +7°C° 0 mm 1 m/s 724 mmHg 88%
21:00 +6°C° 0 mm 1 m/s 724 mmHg 90%
22:00 +6°C° 0 mm 1 m/s 724 mmHg 90%
23:00 +6°C° 0 mm 1 m/s 725 mmHg 90%

25 Janeiro, Segunda-feira

Tempo Temperatura Precipitação Vento Pressão Humidade
00:00 +6°C° 0 mm 1 m/s 725 mmHg 90%
01:00 +6°C° 0 mm 1 m/s 725 mmHg 90%
02:00 +6°C° 0 mm 1 m/s 725 mmHg 89%
03:00 +6°C° 0 mm 1 m/s 725 mmHg 89%
04:00 +5°C° 0 mm 1 m/s 725 mmHg 90%
05:00 +5°C° 0 mm 1 m/s 725 mmHg 90%
06:00 +4°C° 0 mm 1 m/s 725 mmHg 91%
07:00 +5°C° 0 mm 1 m/s 725 mmHg 88%
08:00 +5°C° 0 mm 1 m/s 726 mmHg 85%
09:00 +6°C° 0 mm 1 m/s 727 mmHg 82%
10:00 +8°C° 0 mm 1 m/s 727 mmHg 75%
11:00 +10°C° 0 mm 1 m/s 727 mmHg 69%
12:00 +12°C° 0 mm 1 m/s 727 mmHg 62%
13:00 +12°C° 0 mm 1 m/s 727 mmHg 61%
14:00 +13°C° 0 mm 1 m/s 727 mmHg 60%
15:00 +13°C° 0 mm 1 m/s 727 mmHg 59%
16:00 +11°C° 0 mm 1 m/s 727 mmHg 68%
17:00 +9°C° 0 mm 1 m/s 727 mmHg 76%
18:00 +8°C° 0 mm 1 m/s 727 mmHg 85%
19:00 +6°C° 0 mm 0 m/s 727 mmHg 86%
20:00 +6°C° 0 mm 0 m/s 728 mmHg 87%
21:00 +5°C° 0 mm 0 m/s 728 mmHg 88%
22:00 +5°C° 0 mm 0 m/s 728 mmHg 89%
23:00 +5°C° 0 mm 0 m/s 728 mmHg 89%

26 Janeiro, Terça-feira

Tempo Temperatura Precipitação Vento Pressão Humidade
00:00 +5°C° 0 mm 0 m/s 728 mmHg 90%
01:00 +5°C° 0 mm 0 m/s 729 mmHg 90%
02:00 +5°C° 0 mm 0 m/s 729 mmHg 89%
03:00 +5°C° 0 mm 0 m/s 729 mmHg 88%
04:00 +7°C° 0 mm 1 m/s 729 mmHg 88%
05:00 +7°C° 0 mm 1 m/s 729 mmHg 88%
06:00 +7°C° 0 mm 1 m/s 729 mmHg 87%
07:00 +8°C° 0 mm 1 m/s 729 mmHg 86%
08:00 +8°C° 0 mm 1 m/s 729 mmHg 86%
09:00 +8°C° 0 mm 1 m/s 730 mmHg 85%
10:00 +10°C° 0 mm 1 m/s 730 mmHg 82%
11:00 +10°C° 0 mm 2 m/s 730 mmHg 80%
12:00 +13°C° 0 mm 2 m/s 730 mmHg 78%
13:00 +13°C° 0 mm 2 m/s 730 mmHg 79%
14:00 +14°C° 0 mm 2 m/s 730 mmHg 80%
15:00 +14°C° 0 mm 2 m/s 729 mmHg 82%
16:00 +13°C° 0 mm 2 m/s 730 mmHg 86%
17:00 +12°C° 0 mm 2 m/s 730 mmHg 90%
18:00 +12°C° 0 mm 1 m/s 730 mmHg 94%
19:00 +11°C° 0 mm 1 m/s 730 mmHg 95%
20:00 +11°C° 0 mm 1 m/s 730 mmHg 96%
21:00 +11°C° 0 mm 1 m/s 731 mmHg 97%
22:00 +11°C° 0 mm 1 m/s 731 mmHg 97%
23:00 +11°C° 0 mm 1 m/s 731 mmHg 98%
Mostrar mais

Necessitamos do seu Consentimento

A Meteoprog e os seus Fornecedores de Serviços podem armazenar e aceder a dados pessoais como cookies, identificadores do dispositivo ou outras tecnologias semelhantes existentes no seu dispositivo e processar estes dados para personalizar conteúdos e anúncios, assim como funcionalidades nas redes sociais e análise de tráfego.

  • Armazenar e/ou aceder a informações no seu dispositivo

    Os cookies, identificadores do dispositivo ou outras informações podem ser armazenados ou acedidos no seu dispositivo, para os fins acima indicados.

  • Anúncios e conteúdos personalizados, medição de anúncios e conteúdos, dados sobre o público-alvo e desenvolvimento de produtos

    Os anúncios e os conteúdos podem ser personalizados com base num perfil. Podem ser adicionados dados adicionais para uma maior personalização dos anúncios e dos conteúdos. A eficácia dos anúncios e dos conteúdos pode ser medida. Podem ser obtidas informações sobre o público que visualizou os anúncios e os conteúdos. Estes dados podem ser usados para desenvolver ou melhorar sistemas, softwares ou a experiência do utilizador.

Ao clicar em "Eu concordo”, permitirá o uso de cookies, identificadores do dispositivo e web beacons mencionados ou outras tecnologias semelhantes. As configurações do navegador do seu dispositivo podem ser alteradas.

Para certos fins, podem ser invocados interesses legítimos ao invés de consentimento. Pode ler mais informação sobre este assunto na nossa Política de Privacidade e Cookies.